When you browse on this site, cookies collect data to enhance your experience and personalize the content and advertising you see.
Visit our Privacy Policy to learn more. By continuing to use the site, you agree to this use of cookies and data.
  • In Hungary
  • List of Countries
  • For 7 days
  • Water Temperature
  • Weather Map
  • News
  • Weather Widgets
  • user-avatar
    Login

    Hourly Weather Yablunovytsya

    Today, 6 December, Friday

    Time Temperature Precipitation Wind Pressure Humidity
    00:00 -4°C° 0 mm 3 mps 745 mmHg 65%
    01:00 -4°C° 0 mm 3 mps 745 mmHg 63%
    02:00 -4°C° 0 mm 3 mps 745 mmHg 61%
    03:00 -4°C° 0 mm 3 mps 744 mmHg 62%
    04:00 -4°C° 0 mm 3 mps 744 mmHg 62%
    05:00 -4°C° 0 mm 3 mps 743 mmHg 63%
    06:00 -4°C° 0 mm 3 mps 743 mmHg 66%
    07:00 -4°C° 0 mm 3 mps 743 mmHg 69%
    08:00 -5°C° 0 mm 3 mps 743 mmHg 72%
    09:00 -2°C° 0 mm 3 mps 743 mmHg 69%
    10:00 -1°C° 0 mm 3 mps 743 mmHg 66%
    11:00 0°C° 0 mm 3 mps 742 mmHg 63%
    12:00 0°C° 0 mm 3 mps 742 mmHg 64%
    13:00 +1°C° 0 mm 3 mps 742 mmHg 64%
    14:00 +1°C° 0 mm 3 mps 741 mmHg 64%
    15:00 0°C° 0 mm 3 mps 741 mmHg 68%
    16:00 -1°C° 0 mm 3 mps 741 mmHg 72%
    17:00 -2°C° 0 mm 3 mps 740 mmHg 75%
    18:00 -2°C° 0 mm 3 mps 740 mmHg 74%
    19:00 -2°C° 0 mm 3 mps 740 mmHg 73%
    20:00 -4°C° 0 mm 3 mps 740 mmHg 72%
    21:00 -4°C° 0 mm 3 mps 740 mmHg 72%
    22:00 -4°C° 0 mm 3 mps 740 mmHg 72%
    23:00 -4°C° 0 mm 3 mps 739 mmHg 72%

    Tomorrow, 7 December, Saturday

    Time Temperature Precipitation Wind Pressure Humidity
    00:00 -3°C° 0 mm 2 mps 739 mmHg 73%
    01:00 -3°C° 0 mm 2 mps 739 mmHg 74%
    02:00 -3°C° 0 mm 2 mps 739 mmHg 75%
    03:00 -3°C° 0 mm 2 mps 739 mmHg 75%
    04:00 -3°C° 0 mm 2 mps 738 mmHg 75%
    05:00 -3°C° 0 mm 2 mps 738 mmHg 75%
    06:00 -3°C° 0 mm 2 mps 738 mmHg 75%
    07:00 -3°C° 0 mm 2 mps 738 mmHg 75%
    08:00 -4°C° 0 mm 2 mps 738 mmHg 75%
    09:00 -2°C° 0 mm 2 mps 737 mmHg 71%
    10:00 -1°C° 0 mm 2 mps 737 mmHg 68%
    11:00 +1°C° 0 mm 2 mps 737 mmHg 65%
    12:00 +1°C° 0 mm 2 mps 737 mmHg 65%
    13:00 +1°C° 0 mm 3 mps 736 mmHg 65%
    14:00 +1°C° 0 mm 3 mps 736 mmHg 65%
    15:00 0°C° 0 mm 3 mps 736 mmHg 69%
    16:00 -1°C° 0 mm 3 mps 736 mmHg 73%
    17:00 -2°C° 0 mm 3 mps 735 mmHg 77%
    18:00 -2°C° 0 mm 3 mps 736 mmHg 76%
    19:00 -2°C° 0 mm 3 mps 736 mmHg 75%
    20:00 -2°C° 0 mm 3 mps 736 mmHg 74%
    21:00 -2°C° 0 mm 3 mps 736 mmHg 75%
    22:00 -2°C° 0 mm 3 mps 736 mmHg 75%
    23:00 -1°C° 0 mm 3 mps 736 mmHg 76%

    Day after tomorrow, 8 December, Sunday

    Time Temperature Precipitation Wind Pressure Humidity
    00:00 -1°C° 0 mm 3 mps 736 mmHg 79%
    01:00 -1°C° 0 mm 3 mps 736 mmHg 81%
    02:00 -1°C° 0 mm 3 mps 736 mmHg 84%
    03:00 -1°C° 0 mm 3 mps 735 mmHg 85%
    04:00 -1°C° 0 mm 3 mps 735 mmHg 86%
    05:00 -2°C° 0 mm 4 mps 735 mmHg 87%
    06:00 -2°C° 0 mm 4 mps 735 mmHg 88%
    07:00 -2°C° 0 mm 4 mps 736 mmHg 89%
    08:00 -2°C° 0 mm 4 mps 736 mmHg 89%
    09:00 0°C° 0 mm 4 mps 736 mmHg 86%
    10:00 +1°C° 0 mm 4 mps 736 mmHg 83%
    11:00 +3°C° 0 mm 4 mps 736 mmHg 79%
    12:00 +3°C° 0 mm 4 mps 736 mmHg 79%
    13:00 +3°C° 0 mm 4 mps 736 mmHg 78%
    14:00 +4°C° 0 mm 4 mps 736 mmHg 77%
    15:00 +3°C° 0 mm 4 mps 736 mmHg 81%
    16:00 +1°C° 0 mm 3 mps 736 mmHg 85%
    17:00 0°C° 0 mm 3 mps 736 mmHg 89%
    18:00 0°C° 0 mm 3 mps 736 mmHg 89%
    19:00 0°C° 0 mm 3 mps 736 mmHg 90%
    20:00 0°C° 0 mm 3 mps 737 mmHg 91%
    21:00 -1°C° 0 mm 3 mps 736 mmHg 91%
    22:00 -1°C° 0 mm 3 mps 736 mmHg 90%
    23:00 -1°C° 0 mm 3 mps 736 mmHg 90%

    9 December, Monday

    Time Temperature Precipitation Wind Pressure Humidity
    00:00 -1°C° 0 mm 3 mps 736 mmHg 90%
    01:00 0°C° 0 mm 3 mps 736 mmHg 89%
    02:00 -1°C° 0 mm 4 mps 735 mmHg 88%
    03:00 -1°C° 0 mm 4 mps 735 mmHg 86%
    04:00 -1°C° 0 mm 4 mps 735 mmHg 84%
    05:00 0°C° 0 mm 4 mps 734 mmHg 82%
    06:00 0°C° 0 mm 5 mps 734 mmHg 81%
    07:00 0°C° 0 mm 5 mps 734 mmHg 80%
    08:00 0°C° 0 mm 5 mps 733 mmHg 79%
    09:00 +1°C° 0 mm 5 mps 733 mmHg 77%
    10:00 +1°C° 0 mm 5 mps 733 mmHg 76%
    11:00 +2°C° 0 mm 5 mps 733 mmHg 75%
    12:00 +2°C° 0 mm 5 mps 732 mmHg 75%
    13:00 +2°C° 0 mm 5 mps 732 mmHg 76%
    14:00 +2°C° 0 mm 5 mps 731 mmHg 76%
    15:00 +1°C° 0 mm 4 mps 731 mmHg 79%
    16:00 +1°C° 0 mm 4 mps 731 mmHg 82%
    17:00 0°C° 0 mm 4 mps 730 mmHg 84%
    18:00 0°C° 0 mm 4 mps 730 mmHg 85%
    19:00 +1°C° 0 mm 3 mps 730 mmHg 86%
    20:00 +1°C° 0 mm 3 mps 730 mmHg 87%
    21:00 +1°C° 0 mm 3 mps 729 mmHg 87%
    22:00 +2°C° 0 mm 3 mps 729 mmHg 88%
    23:00 +2°C° 0 mm 3 mps 729 mmHg 89%

    10 December, Tuesday

    Time Temperature Precipitation Wind Pressure Humidity
    00:00 +2°C° 0 mm 3 mps 728 mmHg 88%
    01:00 +1°C° 0 mm 4 mps 728 mmHg 88%
    02:00 +1°C° 0 mm 4 mps 727 mmHg 88%
    03:00 +1°C° 0 mm 4 mps 727 mmHg 90%
    04:00 +1°C° 0 mm 4 mps 726 mmHg 91%
    05:00 0°C° 0 mm 4 mps 726 mmHg 93%
    06:00 +1°C° 0 mm 4 mps 725 mmHg 93%
    07:00 +1°C° 0 mm 4 mps 725 mmHg 94%
    08:00 +2°C° 0 mm 5 mps 724 mmHg 94%
    09:00 +2°C° 0.1 mm 5 mps 724 mmHg 93%
    10:00 +2°C° 0.1 mm 5 mps 724 mmHg 92%
    11:00 +2°C° 0.1 mm 5 mps 724 mmHg 90%
    12:00 +2°C° 0 mm 5 mps 724 mmHg 89%
    13:00 +2°C° 0 mm 5 mps 724 mmHg 87%
    14:00 +2°C° 0 mm 5 mps 724 mmHg 86%
    15:00 +2°C° 0.2 mm 6 mps 725 mmHg 89%
    16:00 +1°C° 0.2 mm 6 mps 725 mmHg 92%
    17:00 0°C° 0.2 mm 7 mps 726 mmHg 94%
    18:00 0°C° 0.3 mm 7 mps 727 mmHg 92%
    19:00 0°C° 0.3 mm 7 mps 727 mmHg 90%
    20:00 0°C° 0.3 mm 7 mps 728 mmHg 88%
    21:00 0°C° 0 mm 7 mps 729 mmHg 86%
    22:00 +1°C° 0 mm 6 mps 730 mmHg 83%
    23:00 +1°C° 0 mm 6 mps 731 mmHg 81%

    11 December, Wednesday

    Time Temperature Precipitation Wind Pressure Humidity
    00:00 +1°C° 0 mm 6 mps 731 mmHg 83%
    01:00 +1°C° 0 mm 6 mps 731 mmHg 85%
    02:00 +1°C° 0 mm 5 mps 732 mmHg 87%
    03:00 +1°C° 0 mm 6 mps 733 mmHg 89%
    04:00 -1°C° 0 mm 6 mps 733 mmHg 90%
    05:00 -1°C° 0 mm 6 mps 734 mmHg 92%
    06:00 -2°C° 0.1 mm 6 mps 735 mmHg 86%
    07:00 -3°C° 0.1 mm 7 mps 735 mmHg 79%
    08:00 -4°C° 0.1 mm 7 mps 736 mmHg 73%
    09:00 -4°C° 0 mm 7 mps 737 mmHg 69%
    10:00 -4°C° 0 mm 7 mps 737 mmHg 66%
    11:00 -4°C° 0 mm 6 mps 738 mmHg 63%
    12:00 -3°C° 0 mm 6 mps 738 mmHg 59%
    13:00 -3°C° 0 mm 6 mps 738 mmHg 55%
    14:00 -3°C° 0 mm 6 mps 738 mmHg 52%
    15:00 -4°C° 0 mm 5 mps 738 mmHg 55%
    16:00 -2°C° 0 mm 3 mps 739 mmHg 59%
    17:00 -3°C° 0 mm 2 mps 739 mmHg 63%
    18:00 -3°C° 0 mm 2 mps 739 mmHg 63%
    19:00 -4°C° 0 mm 2 mps 739 mmHg 63%
    20:00 -4°C° 0 mm 2 mps 739 mmHg 63%
    21:00 -4°C° 0 mm 2 mps 739 mmHg 63%
    22:00 -4°C° 0 mm 2 mps 739 mmHg 62%
    23:00 -3°C° 0 mm 2 mps 739 mmHg 61%
    Show more